Probability
8 9 11 12 11 8 5 3 2 1 1 2 3 5 6 6 6 6 5 2 0 0 0 1 2 2 1 1 0 0 0 0 0 1 2 2 1 0 0 0 0 0 0
6 8 11 12 11 8 5 3 2 1 0 1 2 4 4 5 6 6 4 2 0 0 0 0 1 2 1 1 0 0 0 0 0 0 2 2 1 0 0 0 0 0 0
5 7 10 12 11 8 5 4 3 1 0 0 1 3 3 4 4 4 4 2 1 0 0 1 2 2 1 1 0 0 0 0 0 0 1 2 1 0 0 0 0 0 0
6 6 8 10 10 8 5 4 3 1 0 0 1 2 3 3 3 3 3 3 2 1 0 1 2 3 2 1 1 1 1 1 0 0 1 1 0 0 0 0 0 0 0
6 6 7 8 8 6 4 4 3 2 1 1 0 1 3 3 3 3 3 3 3 2 1 1 2 3 3 3 2 2 2 2 1 0 0 0 0 0 0 0 0 0 0
5 5 5 5 4 4 4 3 3 3 2 2 1 1 2 3 3 3 3 3 3 3 1 1 2 3 3 3 3 3 2 2 1 0 0 1 1 0 0 0 0 0 0
4 3 2 1 2 3 4 3 3 3 3 3 2 1 1 3 3 3 3 3 3 3 2 2 3 3 3 3 3 2 1 1 0 1 1 2 2 2 1 0 0 0 0
3 2 1 0 0 2 3 3 3 3 3 3 2 1 1 2 3 3 3 3 3 3 3 3 3 3 3 3 3 1 1 1 1 1 2 3 3 3 3 2 0 0 0
3 3 1 0 0 2 4 4 3 3 2 1 1 0 0 2 3 3 3 3 3 3 3 3 3 3 3 3 2 1 1 1 1 0 1 2 2 3 4 3 1 0 0
3 3 2 1 1 3 4 4 3 3 1 0 0 0 0 1 2 2 2 3 3 2 2 3 3 3 3 3 2 1 0 0 0 0 0 0 1 3 5 4 2 0 0
3 3 3 3 3 3 4 3 3 2 1 0 0 0 0 1 1 1 2 2 2 1 1 1 2 2 2 2 2 1 0 0 0 0 0 0 1 4 5 4 3 2 1
3 3 3 3 3 3 3 2 1 1 0 0 0 0 0 0 0 1 2 2 1 0 0 0 1 1 1 1 1 0 0 0 0 0 0 0 0 2 3 2 3 3 3
3 4 4 3 3 2 2 1 0 0 0 0 0 0 0 0 0 1 2 1 0 0 0 0 0 0 0 0 0 0 0 0 0 0 0 0 0 0 0 0 1 2 3
3 3 4 3 1 1 1 0 0 0 0 0 0 0 0 0 0 0 1 1 0 0 0 0 0 0 0 0 0 0 0 0 0 0 0 0 0 0 0 0 0 1 1
4 2 2 2 1 0 0 0 0 0 0 0 0 0 0 0 0 0 0 0 0 0 0 0 0 0 0 0 0 0 0 0 0 0 0 0 0 0 0 0 0 0 0
3 2 1 1 0 0 0 0 0 0 0 0 0 0 0 0 0 0 0 0 0 0 0 0 0 0 0 0 0 0 0 0 0 0 0 0 0 0 0 0 0 0 0
3 3 3 2 1 0 0 0 0 0 0 0 0 0 0 0 0 0 0 0 0 0 0 0 0 0 0 0 0 0 0 0 0 0 0 0 0 0 0 0 0 0 0
2 3 4 4 3 1 0 0 0 0 0 0 0 0 0 0 0 0 0 0 0 0 0 0 0 0 0 0 0 0 0 0 0 0 0 0 0 0 0 0 0 0 0
2 3 6 6 5 2 0 0 0 0 0 0 0 0 0 0 0 0 0 0 0 0 0 0 0 0 0 0 0 0 0 0 0 0 0 0 0 0 0 0 0 0 0
1 3 6 8 8 5 2 1 0 0 0 0 0 0 0 0 0 0 0 0 0 0 0 0 0 0 0 0 0 0 0 0 0 0 0 0 0 0 0 0 0 0 0
1 3 6 8 9 7 4 1 1 1 1 1 0 0 0 0 0 0 0 0 0 0 0 0 0 0 0 0 0 0 0 0 0 0 0 0 0 0 0 0 0 0 0
3 4 5 6 7 6 3 1 1 1 2 2 1 0 0 0 0 0 0 0 0 0 0 0 0 0 0 0 0 0 0 0 0 0 0 0 0 0 0 0 0 0 0
2 3 3 4 4 3 1 0 0 1 1 1 1 0 0 0 0 0 0 0 0 0 0 0 0 0 0 0 0 0 0 0 0 0 0 0 0 0 0 0 0 0 0
1 1 1 1 1 1 0 0 0 0 0 0 0 0 0 0 0 0 0 0 0 0 0 0 0 0 0 0 0 0 0 0 0 0 0 0 0 0 0 0 0 0 0
0 0 0 0 0 0 0 0 0 0 0 0 0 0 0 0 0 0 0 0 0 0 0 0 0 0 0 0 0 0 0 0 0 0 0 0 0 0 0 0 0 0 0
0 0 0 0 0 0 0 0 0 0 0 0 0 0 0 0 0 0 0 0 0 0 0 0 0 0 0 0 0 0 0 0 0 0 0 0 0 0 0 0 0 0 0
Wind_Speed
2 2 2 2 2 1 2 3 3 3 3 3 3 4 3 4 3 3 2 2 3 4 4 4 4 4 4 3 3 3 4 4 4 4 4 4 4 4 5 5 5 5 6
2 2 2 2 2 2 2 3 3 3 3 3 4 4 4 4 4 4 3 3 3 4 5 5 5 5 5 5 5 5 5 5 6 6 6 5 5 5 5 5 6 6 7
3 2 3 3 2 2 3 3 3 3 3 3 4 4 4 5 4 5 4 3 3 4 5 6 6 6 6 6 6 6 6 6 7 6 6 6 6 6 6 6 7 7 7
4 3 3 3 3 3 3 3 3 3 3 3 3 4 4 4 6 6 5 4 4 4 4 5 6 6 7 7 7 7 7 7 7 7 7 7 7 7 8 8 7 7 8
4 4 3 3 3 3 3 3 3 3 4 4 4 4 4 5 5 5 6 6 5 5 4 3 5 6 7 8 8 8 8 8 8 8 8 8 8 8 8 8 8 8 9
4 4 3 4 4 3 4 4 4 4 4 3 4 4 5 5 5 5 6 5 5 5 5 5 4 4 6 8 9 9 9 9 9 9 9 9 9 9 9 9 9 9 9
4 4 3 4 4 4 4 5 4 5 4 2 3 4 4 5 6 4 5 5 5 5 5 5 4 4 3 6 8 10 10 10 10 9 9 10 10 9 9 9 9 9 9
4 4 4 4 4 4 5 5 5 4 3 2 3 3 4 4 4 5 5 5 5 4 5 6 5 5 5 4 4 7 9 10 11 11 10 10 10 10 10 9 9 9 10
4 4 5 5 5 5 5 5 5 6 4 4 4 3 3 4 3 4 5 5 5 5 5 5 6 6 6 5 4 5 8 10 11 11 11 11 11 10 10 10 10 10 10
5 5 5 6 6 5 6 6 5 5 5 5 4 5 5 4 4 3 4 5 6 6 6 5 5 6 6 4 4 5 6 8 10 10 11 11 11 11 11 10 10 10 11
5 5 5 5 6 5 6 6 6 6 5 6 5 4 5 4 6 5 5 4 4 5 5 6 5 5 5 5 5 5 6 7 9 10 11 12 11 11 11 11 11 11 11
4 6 6 6 6 6 6 6 6 7 7 7 6 5 5 5 5 5 6 6 6 5 5 5 5 5 5 5 5 5 6 7 8 9 10 11 12 12 11 12 11 11 10
4 5 5 6 6 6 6 7 7 7 8 8 7 6 6 7 5 6 6 6 6 5 5 5 4 4 4 4 4 5 7 8 8 9 9 10 10 11 11 11 11 11 11
5 5 6 6 7 7 7 6 6 7 7 8 9 8 7 7 6 6 6 5 6 5 6 6 3 4 4 4 4 5 6 7 8 9 9 9 9 9 9 10 10 11 11
5 6 6 6 6 7 7 7 6 8 7 8 8 9 7 6 6 6 6 6 6 7 7 5 3 4 4 4 4 5 6 7 8 9 9 8 8 9 8 9 9 9 9
6 7 7 7 7 7 7 7 7 7 8 8 6 8 8 6 6 6 6 6 7 7 7 5 4 4 4 4 5 6 6 7 8 8 8 8 8 8 7 8 8 8 9
7 7 7 7 7 7 7 7 8 8 8 8 8 9 9 8 6 6 6 6 7 7 8 6 4 4 5 5 5 5 4 5 5 7 8 8 8 8 8 8 8 8 9
7 7 7 7 7 8 8 8 9 8 8 9 9 9 10 7 8 7 6 7 7 7 7 7 5 4 6 6 5 5 4 4 4 5 7 8 8 8 8 8 8 8 8
7 7 7 7 8 8 8 8 9 9 9 9 9 9 9 9 9 7 7 7 6 6 6 6 5 4 4 4 4 4 5 4 4 4 6 7 8 8 8 8 8 8 8
7 7 7 7 8 8 8 8 8 8 9 9 8 9 9 9 9 8 7 7 6 6 6 5 4 4 3 4 4 4 4 4 4 3 4 5 6 7 8 8 7 6 6
7 7 7 7 7 7 7 8 8 8 9 9 8 9 9 9 9 8 6 6 6 5 5 5 5 4 4 3 4 3 4 4 4 3 3 3 4 3 4 5 5 5 6
7 7 7 7 7 6 7 9 9 8 8 8 8 8 7 7 7 8 8 7 7 7 6 6 5 6 6 5 4 4 4 4 4 2 3 4 3 4 3 3 4 5 5
7 7 7 7 7 8 8 9 9 8 8 7 7 7 5 5 6 6 6 7 8 8 9 8 8 7 6 5 5 5 5 5 5 3 3 4 3 4 3 4 6 6 6
7 7 7 7 7 7 8 8 8 7 6 6 6 6 6 6 5 5 5 5 5 6 7 6 6 6 5 5 5 5 5 3 3 2 3 3 3 3 3 3 5 6 5
7 6 6 6 7 7 7 7 6 5 5 5 5 5 5 6 6 5 5 4 4 4 3 4 5 4 4 4 3 2 3 3 3 2 2 2 2 3 3 3 3 5 5
6 6 6 6 7 7 6 5 5 4 4 4 4 4 5 5 5 5 5 4 4 4 2 2 1 1 1 2 3 4 4 4 2 2 1 1 2 2 2 2 3 3 3
Wind_Direction
211 208 209 203 218 231 227 236 239 236 239 240 239 238 237 239 244 240 208 200 244 244 235 238 239 235 236 240 243 248 246 250 257 266 268 272 277 278 275 281 283 282 284
227 214 218 214 215 225 242 247 249 244 242 240 242 244 247 245 241 245 246 216 225 244 243 244 242 241 241 242 246 249 255 251 252 260 263 265 270 276 278 282 282 285 279
235 233 227 226 223 229 235 242 245 247 247 246 245 246 250 250 250 244 243 243 226 224 243 249 249 249 247 245 246 250 255 261 255 255 260 263 267 271 274 279 282 287 283
236 234 236 233 232 225 230 235 238 240 241 246 251 252 250 248 249 248 242 239 241 238 232 246 253 253 252 251 250 253 256 261 260 257 257 262 264 266 268 270 277 282 284
237 237 240 242 235 227 226 231 238 242 243 248 256 256 255 251 247 247 242 239 237 244 247 244 255 259 253 255 255 255 257 258 262 260 255 258 260 261 264 266 270 277 281
242 240 240 243 241 232 226 225 232 238 245 250 260 262 260 255 249 243 244 241 238 239 242 246 245 253 253 254 256 257 256 257 262 265 260 258 260 261 263 263 267 271 278
251 242 243 241 236 237 237 230 227 232 240 242 258 268 260 249 247 244 246 243 238 237 240 242 245 248 246 254 256 257 258 258 260 266 266 260 261 261 261 265 267 270 277
252 246 242 242 238 239 242 236 226 229 235 222 242 269 262 248 233 246 244 245 246 243 245 245 246 248 252 253 265 263 264 264 265 266 269 264 262 262 262 264 264 267 272
259 252 247 244 239 236 237 237 226 223 231 227 228 239 252 255 281 236 246 245 246 247 247 247 249 249 250 252 256 258 264 267 268 267 268 270 264 261 263 262 263 265 270
256 252 250 247 245 239 237 237 233 231 228 229 229 236 254 271 262 264 244 247 254 252 249 251 249 249 251 253 259 269 271 271 268 269 270 273 268 264 263 264 264 266 269
250 252 249 247 247 244 241 238 235 233 232 234 234 231 240 251 254 259 267 262 259 255 255 255 252 250 249 250 252 258 267 269 270 274 275 274 272 271 268 267 266 266 267
250 250 249 247 248 246 244 240 234 234 234 235 235 233 234 232 238 247 259 267 265 262 258 256 253 253 252 252 256 256 260 263 268 273 276 276 274 273 273 269 268 269 270
262 261 259 255 254 250 248 243 238 236 235 237 236 236 240 243 244 249 256 265 273 275 265 256 255 253 253 257 255 250 250 256 264 269 274 276 277 275 273 273 268 267 270
262 266 265 262 260 256 252 248 245 240 238 238 240 239 242 243 240 240 246 253 267 267 261 257 257 252 259 261 266 260 256 253 259 266 269 272 275 275 270 270 271 267 269
263 263 261 262 264 259 253 250 247 246 242 241 243 244 242 240 240 239 242 240 245 261 263 255 256 253 261 266 257 260 265 259 262 264 265 265 268 272 266 265 270 272 273
269 267 264 263 262 261 257 252 251 249 245 243 243 246 248 242 239 239 239 242 243 252 263 264 265 266 261 264 257 262 264 264 257 255 259 263 269 273 270 271 272 273 272
269 267 267 265 264 262 259 255 254 252 248 246 243 244 246 247 242 237 237 240 240 242 255 269 268 263 259 259 259 264 266 263 258 252 256 261 269 273 271 275 275 276 272
270 266 265 265 264 262 260 257 256 254 251 249 246 245 246 245 246 243 238 240 242 242 248 259 264 261 262 256 260 263 269 270 268 255 256 259 266 273 273 273 274 274 277
275 271 266 264 264 263 260 257 256 256 255 253 251 248 250 248 246 247 244 243 243 243 243 250 259 264 268 257 263 269 269 270 272 266 259 259 265 271 273 271 272 275 276
276 274 269 266 265 264 262 257 255 255 256 256 255 252 248 246 247 248 245 245 246 242 239 242 248 254 259 257 254 259 266 265 273 276 269 270 273 275 270 272 274 279 282
281 277 274 271 269 266 262 260 256 256 257 259 257 254 251 248 249 248 246 245 243 242 239 239 245 248 246 243 245 250 262 270 277 275 277 270 275 278 274 273 275 282 287
286 282 275 271 269 267 272 271 267 262 261 259 257 255 253 246 245 249 252 252 249 244 241 240 243 241 245 247 249 245 246 259 267 252 269 270 271 272 279 285 295 292 290
287 282 280 275 271 273 277 274 273 271 267 264 260 255 251 249 248 249 252 252 251 252 249 246 241 243 242 238 234 241 244 252 265 256 262 263 266 270 273 279 283 287 294
282 279 278 278 277 276 279 277 276 268 267 266 260 254 252 250 247 247 248 251 256 255 252 248 250 249 245 240 235 239 245 262 287 268 255 260 267 275 281 270 269 281 288
281 279 281 281 280 282 283 276 270 265 265 269 266 259 253 252 246 242 241 246 262 274 278 270 279 273 256 243 238 226 228 240 270 272 277 271 281 291 278 269 273 280 288
279 280 279 280 280 281 285 273 268 260 265 268 269 260 249 250 249 242 237 236 246 264 275 288 301 303 269 219 224 236 226 228 252 249 237 262 274 293 280 267 270 281 284